Weather History for Beaufort, NC

Change the Weather History Date:

Saturday, October 19, 2013

  Actual Average Record
Temperature  
Mean Temperature 72 °F -  
Max Temperature 78 °F 75 °F 83 °F (1985)
Min Temperature 66 °F 55 °F 37 °F (1967)
Cooling Degree Days 6    
Growing Degree Days 22 (Base 50)    
Moisture  
Dew Point 70 °F    
Average Humidity 96    
Maximum Humidity 100    
Minimum Humidity 84    
Precipitation  
Precipitation 0.26 in - - ()
Sea Level Pressure  
Sea Level Pressure 29.91 in    
Wind  
Wind Speed 3 mph (WSW)    
Max Wind Speed 10 mph    
Max Gust Speed -    
Visibility 5 miles    
Events Rain    
Averages and records for this station are not official NWS values.
T = Trace of Precipitation, MM = Missing Value Source: NWS Daily Summary

Daily Weather History Graph

Daily Weather History Graph

Search for Another Location

Airport:

Trip Planner

Search our weather history database for the weather conditions in past years. The results will help you decide how hot, cold, wet, or windy it might be!

Date:

Astronomy

Oct. 19, 2013 Rise Set
Actual Time 7:15 AM EDT 6:26 PM EDT
Civil Twilight 6:50 AM EDT 6:52 PM EDT
Nautical Twilight 6:20 AM EDT 7:21 PM EDT
Astronomical Twilight 5:51 AM EDT 7:50 PM EDT
Moon 6:56 PM EDT (10/19) 7:49 AM EDT (10/19)
Length of Visible Light 12h 01m
Length of Day
11h 10m
Waxing Gibbous, 99% of the Moon is Illuminated
Oct 19
Waxing Gibbous
Oct 26
Last Quarter
Nov 3
New
Nov 10
First Quarter
Nov 17
Full

Hourly Weather History & Observations

Time (EDT) Temp. Dew Point Humidity Pressure Visibility Wind Dir Wind Speed Gust Speed Precip Events Conditions
12:15 AM 68.0 °F 66.2 °F 94% 29.96 in 2.5 mi NE 6.9 mph - 0.04 in Rain Heavy Rain
12:26 AM 68.0 °F 68.0 °F 100% 29.95 in 6.0 mi ENE 6.9 mph - 0.05 in Rain Light Rain
12:58 AM 69.1 °F 68.0 °F 96% 29.95 in 7.0 mi East 6.9 mph - 0.05 in   Overcast
1:58 AM 69.1 °F 69.1 °F 100% 29.93 in 1.8 mi Calm Calm - 0.12 in Rain Heavy Rain
2:00 AM 69.8 °F 69.8 °F 100% 29.93 in 2.0 mi Calm Calm - 0.01 in Rain Heavy Rain
2:06 AM 69.8 °F 69.8 °F 100% 29.92 in 3.0 mi ESE 3.5 mph - 0.01 in Rain Light Rain
2:28 AM 69.8 °F 69.8 °F 100% 29.92 in 4.0 mi Calm Calm - 0.02 in Rain Light Rain
2:58 AM 69.1 °F 68.0 °F 96% 29.92 in 7.0 mi NW 5.8 mph - 0.02 in   Overcast
3:11 AM 69.8 °F 69.8 °F 100% 29.92 in 8.0 mi Calm Calm - 0.00 in Rain Light Rain
3:19 AM 69.8 °F 69.8 °F 100% 29.92 in 8.0 mi Calm Calm - 0.00 in   Overcast
3:26 AM 69.8 °F 69.8 °F 100% 29.92 in 7.0 mi Calm Calm - 0.00 in   Overcast
3:58 AM 69.1 °F 69.1 °F 100% 29.91 in 7.0 mi Calm Calm - 0.00 in   Overcast
4:09 AM 69.8 °F 69.8 °F 100% 29.91 in 6.0 mi Calm Calm - N/A   Mostly Cloudy
4:58 AM 68.0 °F 68.0 °F 100% 29.91 in 2.0 mi Calm Calm - N/A   Scattered Clouds
5:06 AM 68.0 °F 66.2 °F 94% 29.91 in 1.8 mi Calm Calm - N/A   Partly Cloudy
5:10 AM 66.2 °F 66.2 °F 100% 29.91 in 3.0 mi Calm Calm - N/A   Clear
5:24 AM 66.2 °F 66.2 °F 100% 29.91 in 1.5 mi Calm Calm - N/A   Partly Cloudy
5:27 AM 66.2 °F 66.2 °F 100% 29.91 in 0.8 mi Calm Calm - N/A   Mist
5:33 AM 68.0 °F 66.2 °F 94% 29.91 in 1.0 mi NNW 4.6 mph - N/A   Mostly Cloudy
5:36 AM 69.8 °F 68.0 °F 94% 29.91 in 2.0 mi Calm Calm - N/A   Mostly Cloudy
5:43 AM 69.8 °F 69.8 °F 100% 29.91 in 6.0 mi Calm Calm - N/A   Mostly Cloudy
5:58 AM 69.1 °F 68.0 °F 96% 29.92 in 6.0 mi Calm Calm - N/A   Mostly Cloudy
6:09 AM 68.0 °F 68.0 °F 100% 29.91 in 3.0 mi Calm Calm - N/A   Partly Cloudy
6:17 AM 68.0 °F 68.0 °F 100% 29.91 in 2.5 mi Calm Calm - N/A   Scattered Clouds
6:23 AM 68.0 °F 68.0 °F 100% 29.91 in 1.0 mi Calm Calm - N/A   Mostly Cloudy
6:31 AM 68.0 °F 68.0 °F 100% 29.92 in 0.8 mi Calm Calm - N/A   Mostly Cloudy
6:37 AM 68.0 °F 68.0 °F 100% 29.91 in 1.2 mi Calm Calm - N/A   Mostly Cloudy
6:50 AM 68.0 °F 68.0 °F 100% 29.92 in 0.8 mi Calm Calm - N/A   Overcast
6:58 AM 68.0 °F 68.0 °F 100% 29.92 in 0.8 mi Calm Calm - N/A   Overcast
7:09 AM 66.2 °F 66.2 °F 100% 29.91 in 1.2 mi Calm Calm - N/A   Mostly Cloudy
7:14 AM 68.0 °F 66.2 °F 94% 29.91 in 3.0 mi Calm Calm - N/A   Mostly Cloudy
7:58 AM 69.1 °F 68.0 °F 96% 29.92 in 5.0 mi NW 3.5 mph - 0.01 in   Mostly Cloudy
8:27 AM 69.8 °F 69.8 °F 100% 29.93 in 4.0 mi Calm Calm - N/A   Mostly Cloudy
8:55 AM 71.6 °F 69.8 °F 94% 29.94 in 6.0 mi Calm Calm - N/A   Overcast
8:58 AM 71.1 °F 70.0 °F 96% 29.94 in 6.0 mi Calm Calm - N/A   Overcast
9:05 AM 71.6 °F 69.8 °F 94% 29.94 in 6.0 mi Calm Calm - N/A   Overcast
9:50 AM 73.4 °F 71.6 °F 94% 29.93 in 7.0 mi Calm Calm - N/A   Overcast
9:58 AM 73.9 °F 71.1 °F 91% 29.93 in 8.0 mi NNW 3.5 mph - N/A   Overcast
10:58 AM 73.9 °F 71.1 °F 91% 29.93 in 6.0 mi WNW 3.5 mph - N/A   Mostly Cloudy
11:10 AM 75.2 °F 71.6 °F 89% 29.92 in 7.0 mi Calm Calm - N/A   Scattered Clouds
11:58 AM 77.0 °F 72.0 °F 84% 29.92 in 9.0 mi Calm Calm - N/A   Mostly Cloudy
12:58 PM 75.0 °F 71.1 °F 87% 29.90 in 5.0 mi South 6.9 mph - 0.00 in Rain Light Rain
1:40 PM 73.4 °F 71.6 °F 94% 29.88 in 2.0 mi SSW 8.1 mph - 0.03 in Rain Light Rain
1:47 PM 73.4 °F 71.6 °F 94% 29.88 in 1.2 mi SSW 6.9 mph - 0.05 in Rain Rain
1:58 PM 73.0 °F 72.0 °F 96% 29.88 in 2.5 mi SSW 5.8 mph - 0.06 in Rain Light Rain
2:07 PM 73.4 °F 71.6 °F 94% 29.87 in 5.0 mi SSW 5.8 mph - 0.00 in Rain Light Rain
2:58 PM 73.0 °F 71.1 °F 93% 29.87 in 5.0 mi WSW 6.9 mph - 0.00 in Rain Light Rain
3:15 PM 73.4 °F 71.6 °F 94% 29.86 in 4.0 mi SW 6.9 mph - 0.00 in Rain Light Rain
3:55 PM 73.4 °F 71.6 °F 94% 29.86 in 6.0 mi SSW 5.8 mph - 0.00 in   Overcast
3:58 PM 73.0 °F 72.0 °F 96% 29.86 in 6.0 mi SSW 4.6 mph - 0.00 in   Overcast
4:58 PM 73.9 °F 71.1 °F 91% 29.86 in 7.0 mi SW 6.9 mph - N/A   Overcast
5:13 PM 73.4 °F 71.6 °F 94% 29.86 in 7.0 mi SW 8.1 mph - N/A   Overcast
5:30 PM 73.4 °F 71.6 °F 94% 29.86 in 6.0 mi SW 8.1 mph - N/A   Overcast
5:53 PM 73.4 °F 71.6 °F 94% 29.86 in 5.0 mi WSW 8.1 mph - N/A   Overcast
5:58 PM 73.0 °F 71.1 °F 93% 29.86 in 5.0 mi SW 9.2 mph - N/A   Overcast
6:58 PM 73.0 °F 71.1 °F 93% 29.86 in 7.0 mi WSW 6.9 mph - N/A   Scattered Clouds
7:58 PM 73.0 °F 71.1 °F 93% 29.88 in 7.0 mi WSW 6.9 mph - N/A   Mostly Cloudy
8:58 PM 73.0 °F 72.0 °F 96% 29.88 in 7.0 mi WSW 6.9 mph - N/A   Mostly Cloudy
9:58 PM 73.0 °F 71.1 °F 93% 29.88 in 7.0 mi West 5.8 mph - N/A   Clear
10:58 PM 73.0 °F 72.0 °F 96% 29.89 in 6.0 mi West 5.8 mph - 0.00 in   Clear
11:58 PM 73.0 °F 69.1 °F 87% 29.90 in 8.0 mi West 10.4 mph - N/A   Mostly Cloudy